星链-31613 (STARLINK-31613 )

导读 | 豆包AI

STARLINK-31613是美国太空探索技术公司(SpaceX)星链(Starlink)星座的一颗卫星,于2024年4月7日在美国发射升空。它属于星链互联网卫星星座的组网卫星,主要用于为全球范围提供高速低延迟的宽带互联网服务,补充扩展星链星座的覆盖范围与服务容量,推进星链星座完成全球组网部署。

基本信息
目录编号:
59431
目录名称:
STARLINK-31613
国际标识:
2024-065L
轨道中心:
EARTH
卫星名称:
星链-31613
卫星全名:
星链-31613 (STARLINK-31613 )
卫星状态:
在轨 (已飞行707 天)
发射日期:
2024-04-07 UTC
国别 :
美国 (US)
星等 :
--
轨道信息
数据来源 国际轨道数据
星历时间: 2026-03-15T20:33:37+0800
8小时前
查看轨道信息
半长轴: 6853.381km
偏心率: 0.0001135
轨道倾角: 53.159°
近地点辐角 87.071°
升交点赤经 254.501°
平近点角 273.042°
近地点: 474.466km
远地点: 476.022km
周期: 94.106分钟
每日圈数: 15.301905
详细信息
固有亮度:
5
最大亮度:
1.5
卫星平台:
Starlink v2.0 mini
覆盖范围:
全球
运营商:
太空探索技术公司
运营商所在国:
美国
制造商(研发单位):
太空探索技术公司
制造商所在国:
美国
使用方式:
暂无
卫星简介
星链(Starlink)计划是由太空探索技术公司(SpaceX)提出的一个巨型低轨卫星互联网星座项目,计划在2019年至2024年间在太空搭建由约1.2万颗卫星组成的“星链”网络,其中1584颗将部署在地球上空550千米处的近地轨道,并从2020年开始工作。该卫星仍在工作。
2D轨道图
3D轨道图
轨道高度分析图
轨道倾角分析图
轨道综合分析图
查看轨道综合分析图